Find Starlink 31078

NORAD ID: 58638 Int'l Des: 2023-203 Owner: SPXS Country: US Constellation: starlink operational
LEOCIRCULAR

Current View

Loading 3D Globe...

About Starlink 31078

Starlink 31078 (NORAD 58638) is a starlink constellation satellite (v2 mini) launched Dec 23, 2023 by SPXS of US. It operates in LEO, CIRCULAR orbit with a mass of 730.00 kg.

About Starlink 31078

Description loading...

Upcoming Passes

Passes for default location (London). Set your location on the main map for personalized predictions.

Altitude History

Loading altitude history...

Two-Line Element Set

1 58638U 23203W 26177.97996349 -.00000690 00000-0 -15561-4 0 9998
2 58638 43.0004 170.0774 0001128 283.5310 76.5416 15.27574685140276
Epoch: Jun 26, 2026 • Age: 7 hours

Current Status

Altitude 482.5 km
Velocity 7.63 km/s
Sub-Earth Point 8.26°N, 33.78°W
Launch Date Dec 23, 2023
Age 2.5 years
Type internet

Technical Details

Classification Payload
Mass 730.00 kg
Dry Mass 700.00 kg
Total Mass 730.00 kg
Length 0.30 m
Diameter 4.10 m
Span 29.00 m
Shape Box + pan
Manufacturer SPXS
Bus Type Starlink V2M
Phase Status In Orbit
Owner/State SPXS/US

Most Searched